Simultaneous Nadir Overpasses (SNOs) Predictions

Prediction of SNOs between GOES-16 and NOAA-20 Satellite Orbit:

Table of predicted SNOs for the next 14.0 days since TLE Epoch: 7/15/2023
Index Date Time (GOES-16) GOES-16 Lat,Lon NOAA-20 Lat,Lon Distance(km) Time Diff (sec)
1 07/15/2023 06:45:59 0.01, -75.20 0.96, -79.57 497.54 80
2 07/16/2023 06:24:34 -0.01, -75.20 -0.04, -75.04 17.81 80
3 07/18/2023 18:27:47 0.02, -75.21 -0.11, -75.83 70.65 80
4 07/19/2023 18:11:43 0.01, -75.21 0.91, -71.30 446.07 80
5 07/21/2023 06:30:50 -0.01, -75.22 0.31, -76.56 154.20 80
6 07/22/2023 06:14:45 -0.00, -75.22 -0.70, -72.04 363.03 80
7 07/23/2023 18:34:02 -0.00, -75.24 -0.50, -77.34 239.70 80
8 07/24/2023 18:17:57 -0.01, -75.25 0.52, -72.81 277.80 80
9 07/26/2023 06:39:46 -0.00, -75.27 0.64, -78.09 321.90 80
10 07/27/2023 06:18:21 -0.01, -75.28 -0.38, -73.56 195.38 80
11 07/28/2023 18:40:17 0.01, -75.30 -0.81, -78.87 407.07 80
